Location: Prairie View Elementary School
(39.8322°N, 99.5698°W)
Time: 20:07:32
(UTC+00:00)

Cosmos 1484 Rocket - Pass Details

Date: 08 December 2019
Orbit: 505 x 561 km, 97.4° (Epoch: 25 January)

Event Time Altitude Azimuth Distance (km) Brightness Sun altitude
Rises 11:48:41 0° 9° (N) 2,737 6.4 -22.0°
Reaches altitude 10° 11:50:51 10° 7° (N) 1,831 5.4 -21.6°
Maximum altitude 11:54:47 69° 284° (WNW) 584 2.6 -20.9°
Drops below altitude 10° 11:58:38 10° 201° (SSW) 1,785 5.3 -20.1°
Sets 12:00:43 0° 199° (SSW) 2,662 6.3 -19.7°
